Regional Weather Roundup
Issued by NWS Sterling, VA

Home | Current Version | Previous Version | Graphics & Text | Print | Product List | Glossary On
Versions: 1 2 3 4 5 6 7 8 9 10 11 12 13 14 15 16 17 18 19 20 21 22 23 24 25 26 27 28 29 30 31 32 33 34 35 36 37 38 39 40 41 42 43 44 45 46 47 48 49 50
000
ASUS41 KLWX 261510
RWRLWX

REGIONAL WEATHER ROUNDUP
NATIONAL WEATHER SERVICE BALTIMORE MD/WASHINGTON DC
1100 AM EDT SAT JUL 26 2014

Note: "FAIR" indicates few or no clouds below 12,000 feet
with no significant weather and/or obstructions to visibility.
 TC=TEMPERATURE CELSIUS

 * =Non NWS site. Station does not report precipitation (e.g. rain,
    snow, etc.), thunder, or fog.

DCZ001-MDZ009-015-VAZ040>042-051-053>054-261600-
WASHINGTON METRO
  /KDAA//-FT BELVOIR

CITY           SKY/WX    TMP DP  RH WIND       PRES   REMARKS
WASHINGTON NAT CLOUDY    78  65  63 W3        30.01S
DULLES         CLOUDY    77  61  57 VRB3      30.00F
ANDREWS AFB    CLOUDY    75  68  77 W6        30.00F
QUANTICO       CLOUDY    75  66  73 CALM      30.01S
COLLEGE PARK*  CLOUDY    77  66  69 SW3       30.00S
LEESBURG*      MOSUNNY   79  64  61 NW3       30.01F
MANASSAS*      CLOUDY    75  70  83 CALM      30.01S
GAITHERSBURG*  MOSUNNY   73  64  73 CALM      30.04F

$$

MDZ006>007-011-014-261600-
BALTIMORE METRO

CITY           SKY/WX    TMP DP  RH WIND       PRES   REMARKS
BWI AIRPORT    CLOUDY    74  66  76 W5        29.99S
MD SCIENCE CTR   N/A     77  65  66 MISG      30.00S
MARTIN STATE   CLOUDY    75  70  83 CALM      30.01S
ANNAPOLIS      CLOUDY    76  68  76 SW5       30.00S
FORT MEADE*    CLOUDY    72  66  83 CALM      30.02S

$$

MDZ012-015-019>023-261600-
MARYLAND EASTERN SHORE

CITY           SKY/WX    TMP DP  RH WIND       PRES   REMARKS
OCEAN CITY     PTSUNNY   78  67  68 S7        30.02F
SALISBURY      NOT AVBL
BAY BRIDGE AP*   N/A     75  68  78 SW8       30.00S
CAMBRIDGE*     CLOUDY    79  68  69 SW9       29.99F
EASTON*        PTSUNNY   77  72  83 SW5       30.03F

$$

MDZ017>025-261600-
SOUTHERN MARYLAND

CITY           SKY/WX    TMP DP  RH WIND       PRES   REMARKS
PATUXENT RIVER PTSUNNY   78  69  73 SW9       30.00S
ST INIGOES     PTSUNNY   78  66  66 S7        30.00S
LEONARDTOWN*   PTSUNNY   77  66  69 S9        30.01F

$$

MDZ003>005-261600-
NORTH CENTRAL MARYLAND

CITY           SKY/WX    TMP DP  RH WIND       PRES   REMARKS
FREDERICK*     SUNNY     79  66  65 CALM      30.03F
HAGERSTOWN APT SUNNY     76  59  55 CALM      30.01F
WESTMINSTER*   MOSUNNY   75  68  78 N5        30.02F

$$

MDZ501>502-261600-
WESTERN MARYLAND

CITY           SKY/WX    TMP DP  RH WIND       PRES   REMARKS
OAKLAND*       MOSUNNY   68  55  64 CALM      30.09S
CUMBERLAND*    SUNNY     81  55  41 S5        30.05F

$$

VAZ025>031-261600-
SHENANDOAH VALLEY

CITY           SKY/WX    TMP DP  RH WIND       PRES   REMARKS
WINCHESTER*    MOSUNNY   79  55  44 NW6       30.02S
STAUNTON*      PTSUNNY   75  64  68 CALM      30.05F

$$

WVZ021-048>050-054>055-261600-
EASTERN WEST VIRGINIA PANHANDLE

CITY           SKY/WX    TMP DP  RH WIND       PRES   REMARKS
MARTINSBURG    SUNNY     80  56  43 N5        30.02S
PETERSBURG*    SUNNY     77  55  46 E3          N/A

$$

VAZ036>039-050-261600-
CENTRAL FOOTHILLS

CITY           SKY/WX    TMP DP  RH WIND       PRES   REMARKS
CHARLOTTESVILL PTSUNNY   76  68  76 CALM      30.01F
ORANGE*        CLOUDY    73  68  83 CALM      30.03S

$$

VAZ055>057-261600-
NORTH AND CENTRAL PIEDMONT

CITY           SKY/WX    TMP DP  RH WIND       PRES   REMARKS
FREDERICKSBRG* CLOUDY    76  69  79 NW3       30.00F
STAFFORD*      PTSUNNY   73  73  99 CALM      30.04F

$$

NCZ024-NYZ072-PAZ021-071-VAZ022-071-261600-
OTHER REGIONAL OBSERVATIONS

CITY           SKY/WX    TMP DP  RH WIND       PRES   REMARKS
NEW YORK CITY  CLOUDY    74  61  63 W3        30.02S
PHILADELPHIA   CLOUDY    75  66  73 CALM      30.01F
PITTSBURGH     MOSUNNY   75  60  59 SW8       30.00S
ROANOKE        PTSUNNY   81  62  52 SW5       30.06S
RICHMOND       PTSUNNY   82  70  66 SW10      30.01F
RALEIGH        CLOUDY    77  71  82 SW5       30.05S

$$

ANZ530>537-261600-
MARINE OBSERVATIONS

STATION/POSITION TIME  TEMP    WIND        PRES
                       AIR SEA DIR/SP/G
                 (UTC) (F)     (DEG/KT/KT) (MB)
THOMAS PT LIGHT  1500   74 79  230/  9/ 11 1016.3F
BALT KEY BRIDGE  1500   75     260/  9/ 10 1015.7R
COVE POINT       1500   77     220/  8/  9 1015.7F
LEWISETTA        1500   77 79  240/  9/ 10 1015.9S
SOLOMONS ISLAND  1500      80                N/A
PINEY POINT      1500          230/  8/  9   N/A

$$



USA.gov is the U.S. government's official web portal to all federal, state and local government web resources and services.